Regional Weather Roundup
Issued by NWS Newport/Morehead, NC

Current Version | Previous Version | Graphics & Text | Print | Product List | Glossary Off
Versions: 1 2 3 4 5 6 7 8 9 10 11 12 13 14 15 16 17 18 19 20 21 22 23 24 25 26 27 28 29 30 31 32 33 34 35 36 37 38 39 40 41 42 43 44 45 46 47 48 49 50

000
ASUS42 KMHX 250813
RWRMHX
WEATHER ROUNDUP FOR EASTERN NORTH CAROLINA
NATIONAL WEATHER SERVICE NEWPORT/MOREHEAD CITY NC
400 AM EDT THU AUG 25 2016

NOTE: "FAIR" INDICATES FEW OR NO CLOUDS BELOW 12,000 FEET
WITH NO SIGNIFICANT WEATHER AND/OR OBSTRUCTIONS TO VISIBILITY

NCZ015>017-031-032-045>047-102-103-250900-
NORTH COAST

CITY           SKY/WX    TMP DP  RH WIND       PRES   REMARKS
EDENTON        CLEAR    N/A N/A N/A CALM      30.16F
ELIZABETH CITY PTCLDY    69  68  96 CALM      30.16F
KITTY HAWK     SUNNY     71  69  92 CALM      30.15S
MANTEO         CLEAR     68  67  98 CALM      30.16S

$$

NCZ045>047-081-094-103-104-250900-
CENTRAL COAST

CITY           SKY/WX    TMP DP  RH WIND       PRES   REMARKS
FRISCO         CLEAR     70  65  84 E5        30.15S

$$

NCZ095-097-098-100-101-250900-
SOUTHERN COAST

CITY           SKY/WX    TMP DP  RH WIND       PRES   REMARKS
BEAUFORT       CLEAR     71  69  93 E3        30.14F
CEDAR ISLAND   NOT AVBL
JACKSONVILLE   CLEAR     71  68  90 NW5       30.14F
PINEY ISLAND   NOT AVBL
WILMINGTON     MOCLDY    71  68  90 NE6       30.14S


$$

NCZ011>013-027>030-043-044-078>080-089-090>093-098-250900-
COASTAL PLAIN

CITY           SKY/WX    TMP DP  RH WIND       PRES   REMARKS
AHOSKIE        CLEAR     63  62  97 CALM      30.17S
CLINTON        PTCLDY    66  66  99 CALM      30.16S
ELIZABETHTOWN  CLEAR     67  65  93 CALM      30.15F
GOLDSBORO      CLEAR     68  68  99 CALM      30.15S
GREENVILLE       N/A     64  64 100 CALM      30.17S FOG
HAVELOCK       CLEAR     72  68  87 E3        30.15F
KENANSVILLE    NOT AVBL
KINSTON        CLEAR     66  65  96 CALM      30.17S
NEW BERN       FOG       69  68  96 CALM      30.17R VSB 3/4
RICHLANDS      MOCLDY    67  66  97 CALM      30.15F
ROCKY MOUNT    CLEAR     62  62 100 CALM      30.17S FOG
WASHINGTON     CLEAR     66  65  96 CALM      30.16S
WHITEVILLE     PTCLDY    67  65  93 CALM      30.15S

$$

AMZ130-135-150-152-154-156-158-170-250-252-270-ANZ085-086-088-633-658-670-250900-
MARINE OBSERVATIONS

STATION/POSITION TIME  TEMP    WIND        PRES    WAVE   SWELL
                       AIR SEA DIR/SP/G            HT/PER HT/PER
                 (UTC) (F)     (DEG/KT/KT) (MB)    (FT/S) (FT/S)
CHESAPEAKE LIGHT NOT AVBL
64 E VA BEACH    0750   79 81  240/  4/  6 1021.1    3/11   3/11
DUCK             0700   77 78  180/  6/  7 1020.7
2 E DUCK         0711      78                N/A     3/11   2/11
OREGON INLET     0700   75 80   CALM  /  1 1021.0
13E OREGON INLT  0800      77                N/A     3/11   3/11
HATTERAS CG      0700   78 79  100/  4/  7 1020.7
DIAMOND BUOY     0750   80 84  100/  8/ 12 1020.5    3/11   3/11
CAPE LOOKOUT     0800   80      90/  6/  8 1020.2
BEAUFORT LAB     0700   75 80   50/  2/  3 1020.3
30 SE NEW RVR IN 0708   81 84  100/  8/ 12 1020.4
30 SE NEW RVR IN 0725      84                N/A     3/ 6   2/11
27 SE WRIGHTSVLE 0708   82 84  110/ 10/ 14 1020.4
5 SE WRIGHTSVLE  0708   81 83  120/ 10/ 14 1021.3
225 S CAPE HAT   0750   81 84   60/ 17/ 21 1017.8    6/ 7   3/ 9
41 SE CHARLESTON 0750   82 84   40/ 10/ 12 1019.0    3/11   2/11

$$




USA.gov is the U.S. government's official web portal to all federal, state and local government web resources and services.